Location: Caracas
(10.5033°N, 66.8422°W)
Time: 11:42:37
(UTC-04:00)

ISS - Pass Details

Date: 19 November 2017
Orbit: 402 x 407 km, 51.6° (Epoch: 22 November)

Event Time Altitude Azimuth Distance (km) Brightness Sun altitude
Rises 05:53:27 0° 353° (N) 2,296 -0.3 -8.0°
Reaches altitude 10° 05:56:35 10° 26° (NNE) 1,439 -0.9 -7.3°
Maximum altitude 05:57:54 12° 50° (NE) 1,330 -0.8 -7.0°
Drops below altitude 10° 05:59:12 10° 74° (ENE) 1,440 -0.1 -6.7°
Sets 06:02:20 0° 107° (ESE) 2,300 2.9 -5.9°
